Glenwillard, PA (15046)

10:59 PM EDT on September 04, 2015 (GMT -0400)
Moon Township | | Change Station
CLOSE
Current Station
Personal Weather Station
Location: Moon Township, PA
Elevation: 1073 ft
Nearby Weather Stations

Elev 1073 ft 40.52 °N, 80.20 °W | Updated 6 minutes ago

Partly Cloudy
Partly Cloudy
72.5 °F
Feels Like 72 °F
N
0.0
Wind Variable Wind from ENE

Today
High -- | Low -- °F
--% Chance of Precip.
Yesterday
High -- | Low -- °F
Precip. -- in
6:50 AM 7:48 PM
Waning Gibbous, 53% visible
Pressure 30.12 in
Visibility 10.0 miles
Clouds Scattered Clouds 12000 ft
Scattered Clouds 25000 ft
Heat Index 72 °F
Dew Point 67 °F
Humidity 82%
Rainfall 0.00 in
Snow Depth Not available.
UV 0 out of 12
Pollen 9.00 out of 12
Air Quality Not available.
Flu Activity Not available.
METAR KPIT 050251Z 07003KT 10SM SCT120 SCT250 23/18 A3012 RMK AO2 SLP199 T02330178 51007
Pressure 30.12 in
Visibility 10.0 miles
Clouds Scattered Clouds 12000 ft
Scattered Clouds 25000 ft
Heat Index 72 °F
Dew Point 67 °F
Humidity 82%
Rainfall 0.00 in
Snow Depth Not available.
UV 0 out of 12
Pollen 9.00 out of 12
Air Quality Not available.
Flu Activity Not available.
METAR KPIT 050251Z 07003KT 10SM SCT120 SCT250 23/18 A3012 RMK AO2 SLP199 T02330178 51007

10-Day Weather Forecast

×

Almanac

Astronomy

Sep. 04, 2015 Rise Set
Actual Time
Civil Twilight
Nautical Twilight
Astronomical Twilight
Moon
Length of Visible Light
Length of Day
Tomorrow will be .
, % of the Moon is Illuminated

Today's Extremes

State Highs State Lows

Community

WunderPhotos

Upload Photos

1,852,392 photos uploaded!

WunderBlogs® & News

Nearby

Air Quality

  Air Quality AQ Index Pollutant
Not available.

Snow Depth

Station Depth Elevation

Earthquake Activity

City Distance Mag. Time & Date
Minimum magnitude displayed is 2.5.

Coastal Water Temperatures

Place Temperature

Stations

Nearby Weather Stations

Station Location Temp. Windchill Dew Point Humidity Wind Precip. Elev Updated Type